Location: ?ern� Novina
(50.6762°N, 14.8696°E)
Time: 02:27:18
(UTC+00:00)

Cosmos 1937 Rocket - Pass Details

Date: 03 March 2021
Orbit: 747 x 780 km, 74.0° (Epoch: 13 April)

Event Time Altitude Azimuth Distance (km) Brightness Sun altitude
Rises 19:20:13 0° 339° (NNW) 3,225 7.3 -24.9°
Reaches altitude 10° 19:22:47 10° 348° (NNW) 2,291 6.4 -25.3°
Enters shadow 19:26:31 33° 29° (NNE) 1,249 4.5 -25.8°
